Location: Albany
(42.6526°N, 73.7562°W)
Time: 09:51:30
(UTC+00:00)

Ariane Rocket - Pass Details

Date: 19 November 2019
Orbit: 759 x 771 km, 98.7° (Epoch: 08 December)

Event Time Altitude Azimuth Distance (km) Brightness Sun altitude
Exits shadow 23:07:22 23° 40° (NE) 1,583 4.2 -17.9°
Drops below altitude 10° 23:10:10 10° 10° (N) 2,313 5.3 -18.4°
Sets 23:12:47 0° 358° (N) 3,242 6.2 -18.9°
